Weather History for Greenville, ME

Change the Weather History Date:

Sunday, March 10, 2013

  Actual Average (KMLT) Record (KMLT)
Temperature  
Mean Temperature 27 °F 26 °F  
Max Temperature 35 °F 36 °F 52 °F (2002)
Min Temperature 19 °F 16 °F -20 °F (1923)
Degree Days  
Heating Degree Days 38 39  
Month to date heating degree days 404  
Since 1 July heating degree days 6456  
Cooling Degree Days 0 0  
Month to date cooling degree days 0  
Year to date cooling degree days 0  
Moisture  
Dew Point 22 °F    
Average Humidity 80    
Maximum Humidity 96    
Minimum Humidity 61    
Precipitation  
Precipitation 0.00 in 0.09 in 1.93 in (1923)
Month to date precipitation 0.75  
Year to date precipitation 5.86  
Sea Level Pressure  
Sea Level Pressure 30.31 in    
Wind  
Wind Speed 2 mph (SSE)    
Max Wind Speed 8 mph    
Max Gust Speed -    
T = Trace of Precipitation, MM = Missing Value Source: NWS Daily Summary

Daily Weather History Graph

Daily Weather History Graph

Search for Another Location

Airport:

Trip Planner

Search our weather history database for the weather conditions in past years. The results will help you decide how hot, cold, wet, or windy it might be!

Date:

Astronomy

Mar. 10, 2013 Rise Set
Actual Time 6:59 AM EDT 6:37 PM EDT
Civil Twilight 6:30 AM EDT 7:07 PM EDT
Nautical Twilight 5:56 AM EDT 7:41 PM EDT
Astronomical Twilight 5:21 AM EDT 8:16 PM EDT
Moon 6:00 AM EDT (3/10) 5:41 PM EDT (3/10)
Length of Visible Light 12h 37m
Length of Day
11h 38m
Waning Crescent, 2% of the Moon is Illuminated
Mar 10
Waning Crescent
Mar 11
New
Mar 19
First Quarter
Mar 27
Full
Apr 3
Last Quarter

Hourly Weather History & Observations

Time (EDT) Temp. Windchill Dew Point Humidity Pressure Visibility Wind Dir Wind Speed Gust Speed Precip Events Conditions
12:56 AM 24.1 °F - 18.0 °F 77% 30.37 in - Calm Calm - N/A   Unknown
1:56 AM 21.9 °F - 17.1 °F 82% 30.36 in - Calm Calm - N/A   Unknown
3:56 AM 21.9 °F - 18.0 °F 85% 30.35 in - Calm Calm - N/A   Unknown
4:56 AM 21.0 °F - 17.1 °F 85% 30.35 in - Calm Calm - N/A   Unknown
5:56 AM 19.9 °F - 17.1 °F 89% 30.35 in - Calm Calm - N/A   Unknown
6:56 AM 19.0 °F - 17.1 °F 92% 30.36 in - Calm Calm - N/A   Unknown
7:56 AM 19.9 °F 14.9 °F 19.0 °F 96% 30.37 in - Variable 3.5 mph - N/A   Unknown
8:56 AM 21.0 °F 16.2 °F 19.9 °F 96% 30.38 in - SSE 3.5 mph - N/A   Unknown
9:56 AM 21.9 °F 17.2 °F 21.0 °F 96% 30.38 in - Variable 3.5 mph - N/A   Unknown
10:56 AM 24.1 °F - 23.0 °F 96% 30.38 in - Calm Calm - N/A   Unknown
11:56 AM 26.1 °F - 23.0 °F 88% 30.35 in - Calm Calm - N/A   Unknown
12:56 PM 30.9 °F - 23.0 °F 72% 30.33 in - Calm Calm - N/A   Unknown
1:56 PM 33.1 °F 28.7 °F 23.0 °F 66% 30.31 in - Variable 4.6 mph - N/A   Unknown
2:56 PM 34.0 °F 28.0 °F 23.0 °F 64% 30.29 in - Variable 6.9 mph - N/A   Unknown
3:56 PM 35.1 °F 29.3 °F 23.0 °F 61% 30.28 in - SE 6.9 mph - N/A   Unknown
4:56 PM 34.0 °F 28.8 °F 23.0 °F 64% 30.27 in - Variable 5.8 mph - N/A   Unknown
5:56 PM 33.1 °F 27.7 °F 23.0 °F 66% 30.27 in - Variable 5.8 mph - N/A   Unknown
6:56 PM 32.0 °F 27.5 °F 23.0 °F 69% 30.26 in - SE 4.6 mph - N/A   Unknown
7:56 PM 32.0 °F 26.4 °F 23.0 °F 69% 30.25 in - Variable 5.8 mph - N/A   Unknown
8:56 PM 30.9 °F 25.2 °F 23.0 °F 72% 30.25 in - Variable 5.8 mph - N/A   Unknown
9:56 PM 30.9 °F 26.2 °F 24.1 °F 76% 30.25 in - SSE 4.6 mph - N/A   Unknown
10:56 PM 30.0 °F 24.1 °F 25.0 °F 82% 30.24 in - SSE 5.8 mph - N/A   Unknown
11:56 PM 28.9 °F 21.1 °F 26.1 °F 89% 30.22 in - SSE 8.1 mph - N/A   Unknown
12:56 AM 28.0 °F 20.0 °F 25.0 °F 88% 30.21 in - SSE 8.1 mph - N/A   Unknown